TimeEST,TemperatureF,Dew PointF,Humidity,Sea Level PressureIn,VisibilityMPH,Wind Direction,Wind SpeedMPH,Gust SpeedMPH,PrecipitationIn,Events,Conditions,WindDirDegrees,DateUTC
12:01 AM,21.2,8.6,58,30.27,10.0,WNW,5.8,-,N/A,,Mostly Cloudy,300,2013-02-18 05:01:00
12:21 AM,21.2,6.8,54,30.27,10.0,Calm,Calm,-,N/A,,Overcast,0,2013-02-18 05:21:00
12:41 AM,21.2,6.8,54,30.27,10.0,WNW,5.8,-,N/A,,Mostly Cloudy,300,2013-02-18 05:41:00
1:01 AM,21.2,8.6,58,30.27,10.0,NW,16.1,24.2,N/A,,Scattered Clouds,310,2013-02-18 06:01:00
1:21 AM,21.2,6.8,54,30.27,10.0,WNW,10.4,20.7,N/A,,Clear,300,2013-02-18 06:21:00
1:41 AM,21.2,6.8,54,30.28,10.0,NNW,13.8,17.3,N/A,,Clear,330,2013-02-18 06:41:00
2:01 AM,21.2,8.6,58,30.29,10.0,NW,6.9,-,N/A,,Clear,310,2013-02-18 07:01:00
2:21 AM,21.2,8.6,58,30.29,10.0,WNW,8.1,-,N/A,,Clear,300,2013-02-18 07:21:00
2:41 AM,21.2,8.6,58,30.29,10.0,Calm,Calm,-,N/A,,Clear,0,2013-02-18 07:41:00
3:01 AM,21.2,8.6,58,30.29,10.0,SW,3.5,-,N/A,,Clear,220,2013-02-18 08:01:00
3:21 AM,21.2,8.6,58,30.28,10.0,Calm,Calm,-,N/A,,Clear,0,2013-02-18 08:21:00
3:41 AM,21.2,8.6,58,30.29,10.0,WNW,6.9,-,N/A,,Clear,290,2013-02-18 08:41:00
4:01 AM,21.2,6.8,54,30.29,10.0,West,5.8,-,N/A,,Clear,270,2013-02-18 09:01:00
4:21 AM,19.4,6.8,58,30.30,10.0,SW,3.5,-,N/A,,Clear,230,2013-02-18 09:21:00
4:41 AM,19.4,6.8,58,30.30,10.0,WSW,3.5,-,N/A,,Clear,240,2013-02-18 09:41:00
5:01 AM,19.4,6.8,58,30.30,10.0,Calm,Calm,-,N/A,,Clear,0,2013-02-18 10:01:00
5:21 AM,19.4,6.8,58,30.32,10.0,SW,5.8,-,N/A,,Clear,220,2013-02-18 10:21:00
5:41 AM,19.4,6.8,58,30.32,10.0,Calm,Calm,-,N/A,,Clear,0,2013-02-18 10:41:00
6:01 AM,19.4,6.8,58,30.33,10.0,SW,3.5,-,N/A,,Clear,230,2013-02-18 11:01:00
6:21 AM,19.4,6.8,58,30.33,10.0,Calm,Calm,-,N/A,,Clear,0,2013-02-18 11:21:00
6:41 AM,17.6,8.6,68,30.34,10.0,SSW,3.5,-,N/A,,Clear,200,2013-02-18 11:41:00
7:01 AM,17.6,8.6,68,30.35,10.0,SSE,3.5,-,N/A,,Clear,160,2013-02-18 12:01:00
7:21 AM,15.8,10.4,79,30.35,10.0,Calm,Calm,-,N/A,,Clear,0,2013-02-18 12:21:00
7:41 AM,17.6,10.4,73,30.37,10.0,SSE,3.5,-,N/A,,Clear,150,2013-02-18 12:41:00
8:01 AM,19.4,10.4,68,30.37,10.0,SE,3.5,-,N/A,,Clear,140,2013-02-18 13:01:00
8:21 AM,21.2,10.4,63,30.37,10.0,Calm,Calm,-,N/A,,Clear,0,2013-02-18 13:21:00
8:42 AM,23.0,10.4,59,30.37,10.0,Calm,Calm,-,N/A,,Clear,0,2013-02-18 13:42:00
9:02 AM,24.8,10.4,54,30.37,10.0,Calm,Calm,-,N/A,,Clear,0,2013-02-18 14:02:00
9:22 AM,26.6,10.4,51,30.37,10.0,Calm,Calm,-,N/A,,Clear,0,2013-02-18 14:22:00
9:42 AM,28.4,10.4,47,30.37,10.0,ESE,3.5,-,N/A,,Clear,110,2013-02-18 14:42:00
10:02 AM,28.4,10.4,47,30.36,10.0,Calm,Calm,-,N/A,,Clear,0,2013-02-18 15:02:00
10:22 AM,28.4,10.4,47,30.36,10.0,SSE,3.5,-,N/A,,Clear,160,2013-02-18 15:22:00
10:42 AM,30.2,12.2,47,30.35,10.0,NE,3.5,-,N/A,,Clear,50,2013-02-18 15:42:00
11:02 AM,30.2,12.2,47,30.34,10.0,East,3.5,-,N/A,,Clear,90,2013-02-18 16:02:00
11:22 AM,32.0,12.2,44,30.34,10.0,Calm,Calm,-,N/A,,Clear,0,2013-02-18 16:22:00
11:42 AM,32.0,12.2,44,30.32,10.0,Calm,Calm,-,N/A,,Clear,0,2013-02-18 16:42:00
12:02 PM,33.8,14.0,44,30.31,10.0,SE,5.8,-,N/A,,Clear,130,2013-02-18 17:02:00
12:22 PM,33.8,14.0,44,30.29,10.0,Calm,Calm,-,N/A,,Clear,0,2013-02-18 17:22:00
12:42 PM,35.6,14.0,41,30.28,10.0,SE,4.6,-,N/A,,Clear,130,2013-02-18 17:42:00
1:02 PM,35.6,14.0,41,30.26,10.0,East,3.5,-,N/A,,Clear,90,2013-02-18 18:02:00
1:22 PM,37.4,14.0,38,30.25,10.0,SE,5.8,-,N/A,,Clear,130,2013-02-18 18:22:00
1:42 PM,39.2,15.8,39,30.24,10.0,SSE,4.6,-,N/A,,Clear,150,2013-02-18 18:42:00
2:02 PM,39.2,14.0,36,30.23,10.0,ESE,4.6,-,N/A,,Clear,120,2013-02-18 19:02:00
2:22 PM,41.0,15.8,36,30.22,10.0,SSE,5.8,-,N/A,,Clear,160,2013-02-18 19:22:00
2:42 PM,41.0,15.8,36,30.20,10.0,SE,6.9,-,N/A,,Clear,130,2013-02-18 19:42:00
3:02 PM,42.8,17.6,36,30.19,10.0,SSW,5.8,-,N/A,,Clear,210,2013-02-18 20:02:00
3:22 PM,42.8,15.8,34,30.19,10.0,South,3.5,-,N/A,,Clear,170,2013-02-18 20:22:00
3:42 PM,42.8,17.6,36,30.18,10.0,SSE,5.8,-,N/A,,Clear,150,2013-02-18 20:42:00
4:02 PM,42.8,17.6,36,30.18,10.0,SSE,3.5,-,N/A,,Clear,160,2013-02-18 21:02:00
4:22 PM,42.8,15.8,34,30.18,10.0,Calm,Calm,-,N/A,,Clear,0,2013-02-18 21:22:00
4:42 PM,42.8,17.6,36,30.18,10.0,Calm,Calm,-,N/A,,Clear,0,2013-02-18 21:42:00
5:02 PM,42.8,17.6,36,30.17,10.0,Calm,Calm,-,N/A,,Clear,0,2013-02-18 22:02:00
5:22 PM,42.8,15.8,34,30.17,10.0,Calm,Calm,-,N/A,,Clear,0,2013-02-18 22:22:00
5:43 PM,41.0,14.0,33,30.17,10.0,Calm,Calm,-,N/A,,Clear,0,2013-02-18 22:43:00
6:03 PM,41.0,15.8,36,30.17,10.0,Calm,Calm,-,N/A,,Clear,0,2013-02-18 23:03:00
6:23 PM,39.2,15.8,39,30.17,10.0,Calm,Calm,-,N/A,,Clear,0,2013-02-18 23:23:00
6:43 PM,39.2,15.8,39,30.17,10.0,Calm,Calm,-,N/A,,Clear,0,2013-02-18 23:43:00
7:03 PM,39.2,15.8,39,30.16,10.0,Calm,Calm,-,N/A,,Clear,0,2013-02-19 00:03:00
7:23 PM,37.4,17.6,45,30.15,10.0,NNW,3.5,-,N/A,,Clear,330,2013-02-19 00:23:00
7:43 PM,35.6,17.6,48,30.15,10.0,NNW,4.6,-,N/A,,Clear,330,2013-02-19 00:43:00
8:03 PM,35.6,17.6,48,30.14,10.0,NNW,4.6,-,N/A,,Clear,340,2013-02-19 01:03:00
8:23 PM,33.8,17.6,52,30.14,10.0,NNW,4.6,-,N/A,,Clear,330,2013-02-19 01:23:00
8:43 PM,33.8,19.4,56,30.13,10.0,NNW,4.6,-,N/A,,Clear,330,2013-02-19 01:43:00
9:03 PM,32.0,19.4,60,30.13,10.0,Calm,Calm,-,N/A,,Clear,0,2013-02-19 02:03:00
9:23 PM,32.0,19.4,60,30.12,10.0,Calm,Calm,-,N/A,,Clear,0,2013-02-19 02:23:00
9:43 PM,32.0,19.4,60,30.12,10.0,Calm,Calm,-,N/A,,Clear,0,2013-02-19 02:43:00
10:03 PM,32.0,19.4,60,30.12,10.0,Calm,Calm,-,N/A,,Clear,0,2013-02-19 03:03:00
10:23 PM,30.2,19.4,64,30.11,10.0,Calm,Calm,-,N/A,,Clear,0,2013-02-19 03:23:00
10:43 PM,30.2,19.4,64,30.11,10.0,Calm,Calm,-,N/A,,Clear,0,2013-02-19 03:43:00
11:03 PM,30.2,19.4,64,30.11,10.0,Calm,Calm,-,N/A,,Clear,0,2013-02-19 04:03:00
11:23 PM,30.2,19.4,64,30.10,10.0,Calm,Calm,-,N/A,,Clear,0,2013-02-19 04:23:00
11:43 PM,28.4,21.2,74,30.09,10.0,Calm,Calm,-,N/A,,Clear,0,2013-02-19 04:43:00